Regional Weather Roundup
Issued by NWS Goodland, KS

Home | Current Version | Previous Version | Graphics & Text | Print | Product List | Glossary On
Versions: 1 2 3 4 5 6 7 8 9 10 11 12 13 14 15 16 17 18 19 20 21 22 23 24 25 26 27 28 29 30 31 32 33 34 35 36 37 38 39 40 41 42 43 44 45 46 47 48 49 50
025
ASUS43 KGLD 250508
RWRGLD

GOODLAND FORECAST AREA HOURLY WEATHER ROUNDUP
NATIONAL WEATHER SERVICE GOODLAND KS
1100 PM MDT SUN JUL 24 2016

...OFFICIAL OBSERVATIONS...

CITY           SKY/WX    TMP DP  RH WIND       PRES   REMARKS
GOODLAND KS    RAIN      66  63  90 N8        30.26F FOG
HILL CITY KS   MOCLDY    74  60  61 NE8       30.11F
IMPERIAL NEB   CLOUDY    70  55  59 S13       30.10F
MCCOOK NEB     CLOUDY    73  61  65 SE13      30.11F
AKRON CO       CLOUDY    62  53  72 SE16      30.24R
BURLINGTON CO  CLOUDY    66  60  81 E17G31    30.24R
LIMON CO       CLOUDY    60  56  86 E17G26    30.29F
$$

...UNOFFICIAL OBSERVATIONS...

CITY           SKY/WX    TMP DP  RH WIND       PRES   REMARKS
COLBY KS       PTCLDY    72  63  73 W10       30.22R
LENORA KS        N/A     73  32  22 MISG        N/A
NORTON KS      CLEAR     70  54  56 N7        30.12F
SHARON SPRINGS   N/A     64  62  92 NE17G24     N/A
KIT CARSON CO    N/A     64  58  82 MISG        N/A
YUMA CO          N/A     62  56  81 CALM        N/A
$$




USA.gov is the U.S. government's official web portal to all federal, state and local government web resources and services.